Lapse_Rate
6.3 6.5 6.5 6.5 6.5 6.5 6.5 6.5 6.5 6.5 6.5 6.5 6.5 6.5 6.5 6.3 5.8 5.9 5.3 5.5 3.8 3.2 3.5 1.7 1.4 0.1 -0.4 -0.6 -1.1 -2.2 -1.6 -1.6 0.0 0.6 0.8 1.4 0.5 0.9 0.9 1.2 1.3 1.3 0.6 -0.7
6.5 6.5 6.5 6.5 6.5 6.5 6.5 6.5 6.5 6.5 6.5 6.5 6.5 6.5 6.5 6.5 6.4 6.3 6.0 5.8 5.4 3.8 2.1 1.5 0.9 -0.2 -0.7 0.3 -0.9 -1.9 -1.6 -0.6 0.5 1.1 -1.1 -0.8 0.1 0.1 0.3 0.2 0.4 0.7 0.0 -1.0
6.5 6.5 6.5 6.5 6.5 6.5 6.5 6.5 6.5 6.5 6.5 6.5 6.5 6.5 6.5 6.5 6.3 6.3 6.4 6.3 5.8 5.1 3.9 1.4 0.5 -0.7 -1.0 -0.7 -1.4 -1.7 -1.7 -1.0 -0.7 -0.4 -0.3 -0.4 -0.1 0.6 -0.1 0.4 0.1 -0.5 -1.0 -1.5
6.5 6.4 6.5 6.5 6.5 6.5 6.5 6.5 6.5 6.5 6.5 6.5 6.5 6.5 6.5 6.5 6.5 6.5 5.9 5.4 5.5 4.6 2.4 2.2 0.9 -0.5 -1.3 -1.0 -1.5 -1.7 -1.4 -0.9 -0.5 0.6 0.8 1.0 1.0 0.6 0.5 -0.5 -1.6 -1.3 -1.6 -1.8
6.5 6.5 6.5 6.5 6.5 6.5 6.5 6.5 6.5 6.5 6.5 6.5 6.5 6.5 6.5 6.5 6.5 6.5 6.5 3.8 4.1 4.3 2.2 1.6 0.6 0.6 -1.7 -1.6 -2.1 -2.1 -1.7 -0.7 -0.9 0.2 1.6 0.6 -0.5 -0.9 -1.8 -1.5 -1.7 -2.7 -2.9 -1.8
6.5 6.2 6.5 6.5 6.5 6.5 6.5 6.5 6.5 6.5 6.5 6.5 6.5 6.5 6.5 6.5 6.5 6.5 6.5 3.7 3.9 2.9 0.8 1.7 0.5 -1.6 -2.2 -1.9 -2.0 -1.5 -0.9 -1.4 -1.0 -0.1 0.4 0.3 -0.8 -1.3 -1.9 -2.1 -2.1 -3.0 -3.0 -2.9
6.5 6.5 6.5 6.5 6.5 6.5 6.5 6.5 6.5 6.5 6.5 6.5 6.5 6.5 6.5 6.5 6.5 6.5 6.5 4.3 2.7 2.0 1.2 -0.5 -0.7 -1.2 -1.8 -1.5 -1.7 -0.8 -0.3 -1.3 -0.5 1.3 0.3 0.0 -0.5 -0.9 -1.9 -2.3 -2.4 -2.4 -2.4 -2.4
6.5 6.5 6.5 6.5 6.5 6.5 6.5 6.5 6.5 6.5 6.5 6.5 6.5 6.5 6.5 6.5 6.4 6.2 5.9 4.4 3.4 2.7 0.4 0.3 0.1 -0.2 -1.0 -1.0 -1.1 0.1 0.1 -1.1 0.0 0.0 -1.5 -1.6 -1.2 -1.6 -2.0 -2.3 -2.3 -2.4 -2.1 -2.1
6.5 6.5 6.5 6.5 6.5 6.5 6.5 6.5 6.5 6.5 6.5 6.5 6.5 6.5 6.5 6.5 6.5 6.5 6.1 4.9 4.6 2.6 0.3 0.8 0.9 0.5 -0.6 -0.8 -0.7 -0.4 -0.3 -1.0 -1.1 -1.5 -1.4 -1.8 -1.7 -2.0 -2.4 -2.6 -2.5 -2.2 -2.0 -0.9
6.5 6.5 6.5 6.5 6.5 6.5 6.5 6.5 6.5 6.5 6.5 6.5 6.5 6.5 6.5 6.5 6.5 6.5 6.5 6.3 2.5 1.5 1.5 1.7 1.8 0.8 -0.1 -0.6 -1.5 -0.6 -0.1 -0.7 -1.5 -1.6 -1.3 -1.8 -2.3 -2.2 -2.4 -2.1 -2.1 -1.8 -1.7 -1.4
6.5 6.5 6.5 6.5 6.5 6.5 6.5 6.5 6.5 6.5 6.5 6.5 6.5 6.5 6.5 6.5 6.5 6.5 6.5 5.6 2.7 1.7 1.2 1.6 2.3 1.1 -1.0 -0.8 -0.4 -0.9 -0.8 -1.0 -1.5 -1.4 -1.8 -1.9 -2.2 -2.2 -2.1 -1.7 -1.8 -1.7 -1.6 -1.2
6.5 6.5 6.5 6.5 6.5 6.5 6.5 6.5 6.5 6.5 6.5 6.5 6.5 6.5 6.5 6.5 6.5 6.5 6.5 5.0 3.2 3.1 3.3 3.2 2.5 1.6 0.7 -0.6 -0.3 -0.5 -0.4 -1.0 -1.5 -1.5 -1.7 -2.0 -2.1 -1.9 -1.6 -1.6 -1.7 -1.5 -1.4 -1.1
6.5 6.5 6.5 6.5 6.5 6.5 6.5 6.5 6.5 6.5 6.5 6.5 6.5 6.5 6.5 6.5 6.5 6.1 6.2 5.7 5.6 5.0 4.8 3.8 3.1 2.1 0.7 0.1 -0.4 -0.4 -0.5 -1.2 -1.5 -1.1 -1.3 -1.5 -1.7 -1.5 -1.8 -1.8 -1.5 -1.1 -1.0 -1.0
6.6 6.5 6.5 6.5 6.5 6.5 6.5 6.5 6.5 6.5 6.5 6.5 6.5 6.5 6.5 6.5 6.5 6.5 6.1 5.7 5.8 5.5 5.1 5.1 3.7 1.7 0.4 0.3 -0.3 -0.5 -0.7 -0.8 -1.1 -0.8 -1.0 -1.4 -1.6 -1.7 -1.6 -1.4 -1.1 -0.9 -0.9 -0.5
6.5 6.5 6.5 6.5 6.5 6.5 6.5 6.5 6.5 6.5 6.5 6.5 6.5 6.5 6.5 6.5 6.5 6.5 5.0 5.8 6.5 6.8 5.9 5.2 2.9 1.2 0.4 0.1 -0.1 -0.2 -0.7 -0.6 -0.6 -0.6 -0.7 -1.4 -1.7 -1.4 -1.2 -1.0 -1.0 -0.8 -0.2 0.1
6.5 6.5 6.5 6.5 6.5 6.5 6.5 6.5 6.5 6.5 6.5 6.5 6.5 6.5 6.5 6.4 6.1 6.2 4.9 6.2 6.9 7.0 6.6 5.4 3.0 1.5 0.8 0.4 0.4 0.4 -0.4 -0.6 -0.1 -0.4 -0.9 -1.0 -0.9 -0.8 -0.8 -0.6 -0.4 0.0 0.3 0.4
6.5 6.5 6.5 6.5 6.5 6.5 6.5 6.5 6.5 6.5 6.5 6.5 6.5 6.5 6.5 6.5 6.5 6.5 6.1 6.8 6.9 6.9 6.0 4.6 2.5 1.4 0.9 0.8 0.3 -0.1 -0.3 -0.5 -0.2 -0.4 -0.5 -0.4 -0.4 -0.2 -0.1 0.1 0.5 0.6 0.7 0.2
6.5 6.5 6.5 6.5 6.5 6.5 6.5 6.5 6.5 6.5 6.5 6.5 6.5 6.5 6.5 6.5 6.5 5.4 5.4 6.2 5.8 5.9 5.7 3.8 2.1 1.2 0.8 0.4 0.1 -0.7 -0.2 -0.3 -0.2 -0.1 -0.1 0.1 0.3 0.3 0.4 0.5 0.7 0.7 0.3 -0.0
6.5 6.5 6.5 6.5 6.5 6.5 6.5 6.5 6.5 6.5 6.5 6.5 6.5 6.5 6.5 6.2 5.8 6.3 5.0 5.1 4.1 5.0 4.0 2.1 1.4 0.4 0.3 -0.1 -0.2 -0.2 -0.3 -0.2 0.2 0.2 0.4 0.6 0.7 0.7 0.8 1.1 0.9 0.1 -0.2 -0.1
6.5 6.5 6.5 6.5 6.5 6.5 6.5 6.5 6.4 6.5 6.5 6.5 6.5 6.5 6.5 6.3 6.5 6.5 4.2 3.6 3.6 2.8 1.7 0.4 -0.1 -0.2 -0.6 -0.4 0.0 0.2 -0.2 0.3 0.6 0.4 0.6 0.8 1.0 1.1 0.9 0.4 0.1 -0.2 -0.3 0.0
6.5 6.5 6.5 6.5 6.5 6.5 6.5 6.5 6.2 6.5 6.5 6.5 6.1 6.3 6.2 6.5 5.5 3.0 1.9 0.2 0.5 0.6 -0.2 -0.3 -0.1 -0.7 -1.1 -0.4 0.4 0.1 0.2 0.5 0.3 0.6 0.7 0.8 0.8 0.3 -0.2 -0.4 -0.1 -0.2 -0.5 -0.5
6.5 6.5 6.5 6.5 6.5 6.5 6.2 6.2 6.5 6.5 5.6 5.6 5.5 5.2 4.5 1.6 2.8 4.7 2.2 1.0 0.6 -0.2 -0.2 -0.4 -1.0 -1.0 -0.5 0.1 0.6 0.2 0.3 -0.4 0.3 0.6 0.6 0.1 -0.1 1.3 0.8 0.3 0.2 0.2 -0.5 -0.3
6.5 6.5 6.5 6.5 6.5 6.5 5.6 6.2 5.7 4.9 5.2 5.3 5.3 3.7 1.8 2.9 4.5 3.0 1.9 0.8 0.1 -0.6 -0.9 -0.6 -1.4 -1.4 -1.1 -0.3 1.1 -0.2 -1.3 0.1 0.2 0.0 -0.3 -0.4 -0.2 -0.1 0.3 0.7 0.6 0.6 -0.2 -0.1
6.5 6.5 6.5 6.5 6.5 6.5 5.8 5.6 3.3 3.4 3.6 3.7 3.1 3.0 2.8 2.9 2.9 2.0 1.6 1.2 0.5 0.1 -0.4 -0.1 -0.3 -0.3 -0.6 -0.4 -0.4 -1.1 -0.4 0.2 0.1 -0.6 -0.6 -0.4 -0.0 -0.1 -0.2 0.1 1.0 0.6 0.3 0.6
6.5 6.5 6.5 6.5 6.5 5.8 4.9 4.6 2.2 2.0 3.3 3.5 3.5 3.2 2.8 1.9 2.3 1.8 1.4 0.9 0.7 0.5 0.8 0.7 -0.1 -0.4 -0.6 -0.0 -0.4 -0.3 -0.2 0.0 -0.2 -0.5 -0.2 -0.1 0.0 -0.1 -0.0 0.3 0.3 0.9 1.4 2.8
6.3 6.5 6.5 6.5 6.1 6.0 6.0 3.2 2.4 2.2 2.7 3.1 2.5 3.1 2.8 2.1 1.3 1.3 1.2 1.1 0.5 -0.1 0.0 -0.5 -0.6 -0.7 -0.4 -0.2 -0.6 -0.5 -0.1 0.2 0.1 0.3 0.5 0.4 -0.1 -0.4 0.0 -0.1 0.3 3.6 4.9 5.8
Wind_Speed
2 3 7 10 8 10 4 3 9 4 7 7 12 17 18 14 12 13 13 12 11 11 12 7 7 7 6 5 6 7 9 10 11 9 8 7 6 5 6 6 11 10 11 15
1 10 8 5 4 5 8 13 19 13 12 10 13 24 19 17 19 18 15 16 12 10 7 7 7 6 7 6 7 8 8 9 8 7 4 4 6 4 6 6 10 10 12 14
7 3 7 9 6 5 6 11 8 14 9 12 12 25 17 18 21 23 20 19 16 12 12 8 8 9 7 7 8 8 9 8 7 11 10 8 9 6 4 5 5 5 12 14
8 9 9 5 5 8 13 8 14 13 6 7 3 10 5 4 10 11 15 13 14 14 9 8 8 7 9 7 6 8 10 9 9 12 13 17 9 9 3 4 6 5 11 12
5 4 7 14 12 7 4 6 8 10 8 6 8 6 5 5 8 9 9 11 14 16 15 13 12 14 7 7 7 7 9 8 8 9 11 9 9 7 8 7 10 7 6 11
11 3 3 6 7 14 3 4 4 3 4 11 11 9 13 7 9 8 9 11 14 12 10 12 8 8 7 6 7 8 11 7 8 9 9 12 16 14 10 8 7 5 4 4
4 12 6 3 4 7 9 3 3 5 6 7 7 11 22 6 8 8 10 11 10 9 8 9 11 12 11 11 10 8 11 8 8 10 10 11 13 13 13 9 7 6 4 3
3 5 12 12 16 7 17 10 5 5 4 4 5 8 9 9 16 18 16 14 6 6 7 10 12 13 14 13 13 11 11 11 10 10 10 9 12 7 7 7 5 5 4 4
4 6 2 5 6 9 5 11 14 5 3 3 5 8 10 9 10 12 8 11 13 8 9 11 11 13 13 14 13 14 12 10 10 11 10 9 10 10 8 8 7 5 6 5
1 6 3 3 3 10 8 1 4 6 5 5 6 7 12 9 17 14 11 12 10 7 8 9 10 10 9 9 10 11 12 13 11 11 10 9 9 9 9 8 8 7 6 6
6 4 1 5 9 11 8 9 6 3 4 4 4 6 6 11 7 9 16 12 9 12 14 12 10 10 12 10 11 12 12 15 12 10 10 11 9 9 8 8 6 6 6 6
9 3 6 15 10 16 18 13 17 7 6 4 3 17 6 5 6 7 13 10 4 8 9 11 11 12 13 13 11 12 11 13 11 11 11 10 10 9 9 7 7 6 6 5
9 5 4 4 3 8 10 18 20 19 8 14 4 14 8 12 10 5 5 4 4 6 9 11 13 13 11 11 11 11 11 12 11 11 12 9 9 8 8 7 7 6 6 6
12 5 8 12 10 3 6 16 18 17 10 14 16 23 19 15 16 7 3 5 6 7 11 9 11 12 12 11 12 11 11 11 11 11 10 9 8 7 7 7 6 6 6 6
7 7 12 21 23 18 12 12 20 19 23 12 11 18 25 18 11 6 6 7 9 11 11 10 11 12 12 12 11 10 11 11 11 11 10 8 7 7 7 7 6 6 5 5
5 5 3 17 19 18 24 24 18 21 21 21 19 22 13 9 11 12 7 10 12 12 11 11 12 12 13 13 12 12 11 10 10 10 9 8 8 7 6 6 6 6 5 4
3 3 3 9 6 12 5 10 18 14 11 17 15 23 10 13 14 12 9 12 13 13 15 13 13 13 12 12 13 13 11 10 10 10 8 8 7 7 6 6 5 5 4 2
5 3 3 6 9 4 4 4 5 13 9 16 15 16 11 11 12 8 6 11 10 12 13 12 11 11 11 11 11 12 11 9 10 9 8 7 7 7 6 6 5 3 2 3
13 3 3 4 6 6 4 1 3 5 6 12 18 14 12 3 4 3 3 4 8 11 11 10 11 12 13 13 13 13 10 9 9 8 7 7 7 6 6 5 4 2 3 2
9 10 2 4 4 4 5 5 2 3 6 11 14 14 4 4 5 1 1 4 10 12 12 13 13 13 13 11 13 13 10 10 9 7 7 6 6 6 6 4 4 2 1 2
2 3 4 4 3 7 5 8 3 4 4 3 10 11 6 4 2 6 4 9 7 10 13 13 12 12 12 12 13 12 10 8 7 8 8 7 6 6 6 4 2 2 3 3
6 3 3 2 2 4 4 4 2 3 3 3 2 2 5 7 7 3 7 9 11 13 12 12 13 11 10 11 13 11 10 7 9 9 8 6 6 5 4 5 3 3 4 4
3 5 3 6 5 4 3 3 2 2 2 3 2 4 10 11 5 6 9 10 10 11 11 10 13 13 8 8 12 13 6 10 9 7 7 6 6 5 4 4 3 2 3 3
3 3 2 3 3 4 4 1 3 4 3 3 7 8 8 13 9 11 10 10 10 9 11 12 14 13 10 9 11 12 9 8 9 8 6 5 5 4 3 2 2 2 3 4
4 3 3 4 7 5 4 2 4 6 7 10 10 9 11 13 11 10 10 11 10 11 10 11 13 12 11 12 11 8 8 8 8 7 5 5 4 3 3 2 1 3 3 3
5 6 4 4 4 2 0 5 6 6 6 8 13 12 10 10 14 12 11 9 10 12 11 12 13 14 11 11 9 7 6 7 7 6 4 3 3 2 2 3 4 6 8 13
Wind_Direction
159 178 208 204 220 243 258 267 267 268 293 316 268 275 275 277 262 265 270 266 246 250 254 248 252 227 193 196 149 140 136 145 138 137 131 125 124 119 99 89 91 93 103 97
87 240 222 216 203 228 248 265 266 275 251 261 281 278 277 265 261 254 245 256 255 254 249 238 215 196 194 191 167 143 140 149 143 137 102 108 125 91 100 94 85 97 101 100
204 204 205 186 201 213 218 234 252 256 294 270 286 283 265 257 241 245 238 236 248 239 249 231 201 203 199 193 176 158 146 139 123 121 114 102 97 97 88 101 99 86 95 95
247 242 243 199 204 192 255 199 240 252 252 255 155 286 239 279 273 238 249 235 230 227 226 217 196 187 203 200 159 145 139 135 138 142 141 149 147 146 135 126 115 100 93 93
225 195 209 226 223 174 254 179 213 229 236 274 229 276 278 235 273 269 246 228 222 226 214 207 195 197 182 162 157 146 133 136 142 142 150 139 116 109 119 119 110 98 81 86
242 177 197 208 228 213 197 236 266 274 230 248 220 206 263 231 232 230 238 230 228 229 203 206 185 147 140 143 140 143 138 133 131 128 131 139 132 133 130 129 116 106 94 83
228 233 213 208 202 189 195 166 218 225 211 250 195 205 247 261 270 256 252 256 236 231 199 170 162 159 153 161 152 147 144 134 128 130 122 128 131 132 132 131 127 127 111 87
253 295 196 194 207 180 199 201 222 236 230 256 195 235 250 214 238 254 246 256 268 246 184 181 180 170 165 163 155 147 145 132 128 122 117 116 118 119 117 123 123 109 108 106
219 254 359 204 204 175 167 213 221 264 199 241 239 286 285 250 247 262 254 250 249 209 184 186 177 170 162 162 159 146 136 125 121 120 119 113 113 114 121 111 105 109 109 111
292 285 199 196 169 260 210 250 177 201 229 234 248 260 250 314 306 286 271 250 234 199 179 170 169 161 146 141 126 121 131 129 122 115 116 114 113 112 112 108 106 106 104 101
182 215 318 143 207 200 198 223 218 260 199 201 261 257 215 231 273 294 311 282 224 191 178 166 157 146 126 121 127 121 123 123 117 114 114 114 112 108 101 103 106 106 103 102
199 236 232 235 218 207 215 221 214 216 202 231 206 264 218 252 219 359 332 289 232 165 149 139 134 131 133 128 127 124 127 121 119 118 114 112 110 106 105 105 108 106 106 98
165 224 294 279 257 234 224 226 226 235 257 232 204 256 188 243 281 354 336 14 69 111 116 127 135 135 132 125 124 124 126 120 117 116 116 112 110 109 108 109 107 106 109 99
169 212 221 251 255 201 219 221 216 224 232 238 230 262 271 289 293 313 320 152 140 137 136 145 139 133 128 130 125 124 119 120 119 117 117 116 114 114 114 114 112 109 102 95
179 250 234 254 260 252 240 222 216 217 234 238 258 247 268 280 308 265 242 159 158 159 148 157 144 135 129 124 121 123 120 120 123 120 118 118 116 114 114 112 109 104 94 88
208 272 270 274 270 255 251 241 221 217 223 241 248 266 272 305 328 313 195 175 180 166 155 151 142 137 136 136 135 130 125 123 124 121 121 123 119 116 115 114 111 102 93 80
225 249 270 282 313 293 269 246 226 225 207 208 219 238 285 287 275 286 199 190 180 169 158 157 154 146 143 144 140 134 131 125 120 121 124 123 120 116 117 116 107 93 85 65
215 208 230 285 308 327 285 333 270 214 216 209 236 236 232 250 292 307 175 176 162 156 153 146 142 132 133 129 121 119 127 124 122 121 121 119 119 117 114 103 98 91 73 41
209 195 281 292 315 278 308 158 113 177 238 207 233 259 266 337 260 165 58 126 145 154 148 141 139 135 133 131 131 125 119 118 120 123 124 125 122 117 112 102 98 85 53 16
199 219 238 330 313 339 299 353 193 200 12 179 215 247 291 355 31 332 53 112 124 123 130 133 130 127 123 128 128 125 125 122 128 131 122 115 111 112 111 114 89 68 74 352
181 208 226 255 270 289 281 311 165 43 268 353 194 219 181 188 178 341 25 57 73 112 122 120 121 126 127 128 126 121 126 128 120 111 105 100 103 109 109 96 85 56 22 351
192 186 202 124 272 310 352 333 73 260 297 300 276 163 146 113 98 151 96 94 102 107 103 108 109 108 114 122 122 121 116 115 107 104 104 104 99 90 97 94 61 45 17 352
253 186 202 177 218 249 260 266 313 272 290 308 167 116 127 118 139 105 91 89 91 99 102 106 113 107 89 98 123 115 115 111 110 103 103 102 95 85 73 73 43 24 1 344
253 185 215 6 298 271 293 10 23 37 89 64 89 103 115 126 113 103 97 96 96 95 105 113 111 106 93 84 90 108 115 113 109 106 104 102 101 82 58 42 24 12 341 330
213 147 199 262 276 284 255 75 119 82 85 86 79 91 112 115 102 109 103 99 100 102 101 103 105 102 96 99 97 102 110 110 104 101 97 89 86 68 34 1 289 325 288 276
188 193 170 223 224 151 314 132 125 104 95 98 107 91 74 104 109 108 99 101 105 102 101 95 96 101 99 99 97 95 99 103 106 103 102 97 78 49 25 0 336 337 323 325